McAllen, TX

9:06 PM CST on February 09, 2016 (GMT -0600)
McAllen Miller International

Weather History for KMFE - January, 2013

Change the Weather History Date:

Wednesday, January 9, 2013

  Actual Average Record
Temperature  
Mean Temperature 63 °F 60 °F  
Max Temperature 69 °F 70 °F 90 °F (1952)
Min Temperature 57 °F 50 °F 28 °F (1913)
Degree Days  
Heating Degree Days 2 7  
Month to date heating degree days 84 63  
Since 1 July heating degree days 187 300  
Cooling Degree Days 0 2  
Month to date cooling degree days 2 18  
Year to date cooling degree days 2 18  
Growing Degree Days 13 (Base 50)    
Moisture  
Dew Point 57 °F    
Average Humidity 81    
Maximum Humidity 93    
Minimum Humidity 68    
Precipitation  
Precipitation 0.38 in 0.03 in 0.78 in (1973)
Month to date precipitation 0.96 0.29  
Year to date precipitation 0.96 0.29  
Sea Level Pressure  
Sea Level Pressure 29.93 in    
Wind  
Wind Speed 7 mph (WNW)    
Max Wind Speed 18 mph    
Max Gust Speed 25 mph    
Visibility 9 miles    
Events Rain    
T = Trace of Precipitation, MM = Missing Value Source: NWS Daily Summary

Daily Weather History Graph

Daily Weather History Graph

Search for Another Location

Airport or City:

Trip Planner

Search our weather history database for the weather conditions in past years. The results will help you decide how hot, cold, wet, or windy it might be!

Date:

Astronomy

Jan. 09, 2013 Rise Set
Actual Time 7:21 AM CST 5:58 PM CST
Civil Twilight 6:56 AM CST 6:23 PM CST
Nautical Twilight 6:28 AM CST 6:52 PM CST
Astronomical Twilight 6:00 AM CST 7:20 PM CST
Moon 5:02 AM CST (1/9) 4:02 PM CST (1/9)
Length of Visible Light 11h 26m
Length of Day
10h 36m
Waning Crescent, 6% of the Moon is Illuminated
Jan 9
Waning Crescent
Jan 11
New
Jan 18
First Quarter
Jan 26
Full
Feb 3
Last Quarter

Hourly Weather History & Observations

Time (CST) Temp. Dew Point Humidity Pressure Visibility Wind Dir Wind Speed Gust Speed Precip Events Conditions
12:03 AM 69.8 °F 64.4 °F 83% 29.84 in 10.0 mi SE 15.0 mph - 0.00 in   Overcast
12:27 AM 69.8 °F 66.2 °F 88% 29.82 in 9.0 mi SSE 11.5 mph - 0.00 in   Overcast
12:53 AM 68.0 °F 64.9 °F 90% 29.83 in 8.0 mi West 10.4 mph 16.1 mph 0.00 in   Overcast
1:01 AM 64.4 °F 60.8 °F 88% 29.84 in 9.0 mi West 9.2 mph 16.1 mph N/A   Overcast
1:31 AM 62.6 °F 60.8 °F 94% 29.85 in 10.0 mi West 6.9 mph - N/A   Overcast
1:53 AM 63.0 °F 59.0 °F 87% 29.86 in 10.0 mi West 9.2 mph - N/A   Overcast
2:15 AM 62.6 °F 59.0 °F 88% 29.87 in 10.0 mi West 8.1 mph - N/A   Overcast
2:42 AM 60.8 °F 57.2 °F 88% 29.86 in 10.0 mi WNW 11.5 mph 23.0 mph N/A   Overcast
2:53 AM 60.1 °F 57.0 °F 90% 29.85 in 10.0 mi NW 11.5 mph - N/A   Overcast
3:03 AM 60.8 °F 55.4 °F 82% 29.84 in 10.0 mi North 8.1 mph - N/A   Overcast
3:53 AM 59.0 °F 55.9 °F 90% 29.85 in 10.0 mi NW 9.2 mph - N/A   Scattered Clouds
4:53 AM 60.1 °F 55.9 °F 86% 29.88 in 10.0 mi NW 3.5 mph - N/A   Overcast
5:21 AM 60.8 °F 55.4 °F 82% 29.91 in 10.0 mi West 15.0 mph 24.2 mph N/A   Overcast
5:28 AM 59.0 °F 55.4 °F 88% 29.90 in 10.0 mi WNW 11.5 mph 25.3 mph N/A   Overcast
5:53 AM 57.9 °F 54.0 °F 87% 29.90 in 10.0 mi NW 12.7 mph 21.9 mph 0.00 in Rain Light Rain
6:53 AM 57.9 °F 55.0 °F 90% 29.91 in 10.0 mi Variable 3.5 mph - 0.02 in   Overcast
7:53 AM 57.9 °F 55.9 °F 93% 29.94 in 5.0 mi NNW 8.1 mph - 0.18 in Rain Heavy Rain
8:53 AM 57.9 °F 55.9 °F 93% 29.97 in 7.0 mi West 6.9 mph - 0.08 in Rain Rain
9:07 AM 57.2 °F 55.4 °F 94% 29.98 in 7.0 mi West 6.9 mph - 0.01 in Rain Light Rain
9:33 AM 57.2 °F 55.4 °F 94% 29.99 in 7.0 mi West 3.5 mph - 0.04 in Rain Rain
9:53 AM 57.0 °F 55.0 °F 93% 30.03 in 5.0 mi WSW 6.9 mph - 0.07 in Rain Rain
10:29 AM 57.2 °F 55.4 °F 94% 30.00 in 10.0 mi West 4.6 mph - 0.03 in   Overcast
10:53 AM 57.9 °F 55.0 °F 90% 29.99 in 10.0 mi West 11.5 mph 17.3 mph 0.03 in   Overcast
11:53 AM 59.0 °F 55.9 °F 90% 29.97 in 7.0 mi WNW 9.2 mph - N/A   Overcast
12:53 PM 61.0 °F 57.0 °F 87% 29.94 in 10.0 mi WNW 10.4 mph - 0.00 in   Mostly Cloudy
1:12 PM 60.8 °F 55.4 °F 82% 29.94 in 10.0 mi NW 9.2 mph - N/A   Mostly Cloudy
1:43 PM 62.6 °F 57.2 °F 82% 29.93 in 10.0 mi WNW 8.1 mph - N/A   Overcast
1:53 PM 63.0 °F 55.9 °F 78% 29.93 in 10.0 mi NW 16.1 mph - N/A   Mostly Cloudy
2:00 PM 62.6 °F 55.4 °F 77% 29.93 in 10.0 mi NW 11.5 mph - N/A   Mostly Cloudy
2:53 PM 64.9 °F 57.0 °F 75% 29.93 in 10.0 mi NW 4.6 mph - N/A   Clear
3:53 PM 66.0 °F 57.0 °F 73% 29.93 in 10.0 mi NW 8.1 mph - N/A   Clear
4:53 PM 66.0 °F 55.9 °F 70% 29.95 in 10.0 mi North 6.9 mph - N/A   Clear
5:53 PM 64.9 °F 57.0 °F 75% 29.99 in 10.0 mi NE 3.5 mph - N/A   Scattered Clouds
6:53 PM 63.0 °F 57.9 °F 84% 30.01 in 10.0 mi East 3.5 mph - 0.00 in   Mostly Cloudy
7:53 PM 62.1 °F 57.9 °F 86% 30.03 in 10.0 mi ESE 4.6 mph - 0.00 in   Mostly Cloudy
8:53 PM 61.0 °F 57.9 °F 90% 30.03 in 10.0 mi ESE 3.5 mph - 0.00 in   Mostly Cloudy
9:53 PM 61.0 °F 57.9 °F 90% 30.05 in 9.0 mi Calm Calm - N/A   Overcast
10:53 PM 59.0 °F 55.0 °F 87% 30.08 in 10.0 mi SE 8.1 mph - N/A   Overcast
11:53 PM 57.9 °F 53.1 °F 84% 30.08 in 10.0 mi SE 4.6 mph - N/A   Overcast